TimeCDT,TemperatureF,Dew PointF,Humidity,Sea Level PressureIn,VisibilityMPH,Wind Direction,Wind SpeedMPH,Gust SpeedMPH,PrecipitationIn,Events,Conditions,WindDirDegrees,DateUTC
12:53 AM,50.0,46.0,86,30.06,10.0,NW,8.1,-,0.00,,Clear,310,2014-04-09 05:53:00
1:53 AM,48.9,45.0,86,30.06,10.0,NW,8.1,-,0.00,,Clear,310,2014-04-09 06:53:00
2:53 AM,48.0,45.0,89,30.06,10.0,NW,6.9,-,N/A,,Clear,310,2014-04-09 07:53:00
3:53 AM,46.9,44.1,90,30.08,10.0,WNW,6.9,-,N/A,,Clear,300,2014-04-09 08:53:00
4:53 AM,46.9,44.1,90,30.11,10.0,WNW,8.1,-,N/A,,Clear,300,2014-04-09 09:53:00
5:53 AM,46.9,43.0,86,30.14,10.0,NW,8.1,-,N/A,,Clear,310,2014-04-09 10:53:00
6:53 AM,48.0,43.0,83,30.18,10.0,Variable,5.8,-,N/A,,Clear,0,2014-04-09 11:53:00
7:53 AM,51.1,44.1,77,30.20,10.0,NW,5.8,-,N/A,,Clear,320,2014-04-09 12:53:00
8:53 AM,54.0,44.1,69,30.22,10.0,North,10.4,-,N/A,,Clear,350,2014-04-09 13:53:00
9:53 AM,57.9,46.0,65,30.23,10.0,North,6.9,-,N/A,,Clear,350,2014-04-09 14:53:00
10:53 AM,63.0,46.9,56,30.25,10.0,NW,8.1,-,N/A,,Clear,310,2014-04-09 15:53:00
11:53 AM,64.9,41.0,42,30.24,10.0,North,8.1,-,N/A,,Clear,360,2014-04-09 16:53:00
12:53 PM,66.9,39.0,36,30.22,10.0,NW,4.6,-,N/A,,Clear,320,2014-04-09 17:53:00
1:53 PM,69.1,41.0,36,30.20,10.0,North,-9999.0,-,N/A,,Clear,0,2014-04-09 18:53:00
2:53 PM,70.0,39.0,32,30.18,10.0,North,6.9,-,N/A,,Clear,10,2014-04-09 19:53:00
3:53 PM,72.0,37.0,28,30.17,10.0,North,9.2,-,N/A,,Clear,350,2014-04-09 20:53:00
4:53 PM,71.1,37.9,30,30.15,10.0,NNW,4.6,-,N/A,,Clear,330,2014-04-09 21:53:00
5:53 PM,71.1,36.0,28,30.15,10.0,West,6.9,-,N/A,,Clear,280,2014-04-09 22:53:00
6:53 PM,68.0,39.9,36,30.16,10.0,NW,4.6,-,N/A,,Clear,310,2014-04-09 23:53:00
7:53 PM,60.1,46.0,60,30.17,10.0,Calm,Calm,-,N/A,,Clear,0,2014-04-10 00:53:00
8:53 PM,55.0,46.9,74,30.18,10.0,Calm,Calm,-,N/A,,Clear,0,2014-04-10 01:53:00
9:53 PM,52.0,48.0,86,30.20,10.0,Calm,Calm,-,N/A,,Clear,0,2014-04-10 02:53:00
10:53 PM,50.0,46.9,89,30.21,10.0,Calm,Calm,-,N/A,,Clear,0,2014-04-10 03:53:00
11:53 PM,48.9,46.0,90,30.22,10.0,Calm,Calm,-,N/A,,Clear,0,2014-04-10 04:53:00